Weather History for KMOT - September, 2013

Change the Weather History Date:

Saturday, September 7, 2013

  Actual Average Record
Temperature  
Mean Temperature 68 °F 62 °F  
Max Temperature 77 °F 74 °F 100 °F (1931)
Min Temperature 59 °F 49 °F 31 °F (1929)
Degree Days  
Heating Degree Days 0 5  
Month to date heating degree days 3 31  
Since 1 July heating degree days 72 102  
Cooling Degree Days 3 2  
Month to date cooling degree days 38 15  
Year to date cooling degree days 409 426  
Growing Degree Days 18 (Base 50)    
Moisture  
Dew Point 57 °F    
Average Humidity 68    
Maximum Humidity 90    
Minimum Humidity 46    
Precipitation  
Precipitation 0.22 in 0.05 in 0.33 in (1999)
Month to date precipitation 0.22 0.36  
Year to date precipitation 20.40 13.80  
Sea Level Pressure  
Sea Level Pressure 30.08 in    
Wind  
Wind Speed 8 mph (NE)    
Max Wind Speed 20 mph    
Max Gust Speed 24 mph    
Visibility 9 miles    
Events Rain    
T = Trace of Precipitation, MM = Missing Value Source: NWS Daily Summary

Daily Weather History Graph

Daily Weather History Graph

Search for Another Location

Airport or City:

Trip Planner

Search our weather history database for the weather conditions in past years. The results will help you decide how hot, cold, wet, or windy it might be!

Date:

Astronomy

Sep. 07, 2013 Rise Set
Actual Time 7:11 AM CDT 8:13 PM CDT
Civil Twilight 6:39 AM CDT 8:45 PM CDT
Nautical Twilight 6:01 AM CDT 9:23 PM CDT
Astronomical Twilight 5:20 AM CDT 10:03 PM CDT
Moon 9:42 AM CDT 8:56 PM CDT
Length of Visible Light 14h 05m
Length of Day
13h 02m
Waxing Crescent, 5% of the Moon is Illuminated
Sep 7
Waxing Crescent
Sep 12
First Quarter
Sep 19
Full
Sep 26
Last Quarter
Oct 4
New

Hourly Weather History & Observations

Time (CDT) Temp. Dew Point Humidity Pressure Visibility Wind Dir Wind Speed Gust Speed Precip Events Conditions
12:54 AM 69.1 °F 64.0 °F 84% 29.95 in 10.0 mi North 3.5 mph - N/A   Clear
1:54 AM 68.0 °F 64.0 °F 87% 29.99 in 10.0 mi North 6.9 mph - N/A   Clear
2:54 AM 66.9 °F 62.1 °F 84% 30.01 in 10.0 mi North 4.6 mph - N/A   Partly Cloudy
3:54 AM 64.0 °F 60.1 °F 87% 30.02 in 10.0 mi NNE 4.6 mph - N/A   Clear
4:54 AM 63.0 °F 59.0 °F 87% 30.04 in 10.0 mi North 4.6 mph - N/A   Mostly Cloudy
5:54 AM 61.0 °F 57.0 °F 87% 30.04 in 10.0 mi Calm Calm - N/A   Partly Cloudy
6:54 AM 61.0 °F 55.9 °F 83% 30.06 in 10.0 mi North 6.9 mph - N/A   Clear
7:54 AM 61.0 °F 55.9 °F 83% 30.08 in 10.0 mi Calm Calm - N/A   Scattered Clouds
8:54 AM 64.9 °F 55.9 °F 73% 30.09 in 10.0 mi North 10.4 mph - N/A   Overcast
9:54 AM 68.0 °F 55.0 °F 63% 30.10 in 10.0 mi NE 9.2 mph - N/A   Scattered Clouds
10:54 AM 70.0 °F 54.0 °F 57% 30.11 in 10.0 mi NE 12.7 mph - N/A   Clear
11:54 AM 73.9 °F 54.0 °F 50% 30.11 in 10.0 mi ENE 15.0 mph - N/A   Clear
12:54 PM 75.9 °F 53.1 °F 45% 30.09 in 10.0 mi ENE 15.0 mph 21.9 mph N/A   Clear
1:54 PM 73.9 °F 54.0 °F 50% 30.08 in 10.0 mi ENE 15.0 mph 19.6 mph N/A   Clear
2:54 PM 75.0 °F 54.0 °F 48% 30.08 in 10.0 mi ENE 15.0 mph 23.0 mph N/A   Clear
3:54 PM 73.0 °F 53.1 °F 49% 30.11 in 10.0 mi ENE 11.5 mph - N/A   Mostly Cloudy
4:54 PM 66.0 °F 59.0 °F 78% 30.14 in 3.0 mi ENE 3.5 mph - 0.03 in Rain Rain
5:01 PM 66.2 °F 57.2 °F 73% 30.13 in 2.5 mi NE 3.5 mph - 0.01 in Rain Rain
5:09 PM 66.2 °F 57.2 °F 73% 30.13 in 3.0 mi ENE 3.5 mph - 0.02 in Rain Rain
5:29 PM 64.4 °F 60.8 °F 88% 30.12 in 2.5 mi East 5.8 mph - 0.08 in Rain Rain
5:39 PM 64.4 °F 60.8 °F 88% 30.11 in 3.0 mi ENE 8.1 mph - 0.11 in Rain Rain
5:54 PM 64.9 °F 57.9 °F 78% 30.12 in 10.0 mi NE 5.8 mph - 0.12 in Rain Light Rain
6:54 PM 64.0 °F 60.1 °F 87% 30.16 in 9.0 mi NW 4.6 mph - 0.02 in Rain Light Rain
7:54 PM 63.0 °F 57.0 °F 81% 30.12 in 10.0 mi NE 5.8 mph - 0.04 in   Scattered Clouds
8:54 PM 62.1 °F 57.0 °F 84% 30.09 in 10.0 mi NNE 5.8 mph - 0.01 in   Partly Cloudy
9:54 PM 63.0 °F 55.0 °F 75% 30.08 in 10.0 mi ENE 9.2 mph - N/A   Overcast
10:54 PM 61.0 °F 54.0 °F 78% 30.08 in 10.0 mi ENE 8.1 mph - N/A   Clear
11:54 PM 62.1 °F 54.0 °F 75% 30.06 in 10.0 mi ENE 6.9 mph - N/A   Mostly Cloudy